Location: Edemissen
(51.7689°N, 9.8634°E)
Time: 09:56:38
(UTC+00:00)

USA 234 - Pass Details

Date: 15 June 2024
Orbit: 1100 x 1107 km, 123.0° (Epoch: 08 July)

Event Time Altitude Azimuth Distance (km) Brightness Sun altitude
Rises 01:38:36 0° 106° (ESE) 3,921 6.4 -9.1°
Reaches altitude 10° 01:41:05 10° 105° (ESE) 2,964 5.8 -8.9°
Maximum altitude 01:47:37 76° 21° (NNE) 1,141 3.6 -8.3°
Drops below altitude 10° 01:54:09 10° 298° (WNW) 2,966 5.5 -7.8°
Sets 01:56:38 0° 297° (WNW) 3,924 6.1 -7.5°
